Regional Weather Roundup
Issued by NWS State College, PA

Home | Current Version | Previous Version | Graphics & Text | Print | Product List | Glossary On
Versions: 1 2 3 4 5 6 7 8 9 10 11 12 13 14 15 16 17 18 19 20 21 22 23 24 25 26 27 28 29 30 31 32 33 34 35 36 37 38 39 40 41 42 43 44 45 46 47 48 49 50
000
ASUS41 KCTP 250203
RWRCTP

REGIONAL WEATHER ROUNDUP
NATIONAL WEATHER SERVICE STATE COLLEGE PA
1000 PM EDT MON APR 24 2017

Note: "fair" indicates few or no clouds below 12,000 feet with no
significant weather and/or obstructions to visibility.

* = STATION THAT DOES NOT REPORT PRECIPITATION /E.G. RAIN...SNOW...ETC/
    THUNDER OR FOG.

PAZ002>004-007>009-013>016-020>023-029>032-250300-
WESTERN PENNSYLVANIA

CITY           SKY/WX    TMP DP  RH WIND       PRES   REMARKS
ERIE           CLOUDY    48  41  76 NE6       29.98F
MEADVILLE      CLOUDY    60  36  40 MISG      29.98S
FRANKLIN*      CLOUDY    57  37  47 SE14      30.01S
NEW CASTLE     CLOUDY    58  41  53 E13       29.99S
BEAVER COUNTY  NOT AVBL
BUTLER*        CLOUDY    54  43  66 E15G23    30.00S
PITTSBURGH INT CLOUDY    54  45  71 E10       29.97F
PITTSBURGH     CLOUDY    53  42  66 E10       29.97F
INDIANA*       CLOUDY    54  45  71 SE13      30.04S
LATROBE        CLOUDY    54  43  66 E12       29.99F
WASHINGTON CO* CLOUDY    52  45  76 E8        29.98F
$$

PAZ004>006-010>012-017>019-024>028-033>037-041-042-045-046-049>053-250300-
CENTRAL PENNSYLVANIA

CITY           SKY/WX    TMP DP  RH WIND       PRES   REMARKS
BRADFORD       CLOUDY    57  32  38 SE10      30.04S
DUBOIS         CLOUDY    54  38  54 E15G23    30.02S
CLEARFIELD     CLOUDY    52  44  74 E8        30.06F
JOHNSTOWN      CLOUDY    47  42  83 E14G25    30.01S
ALTOONA        LGT RAIN  52  43  71 E12G18    30.06F
STATE COLLEGE  NOT AVBL
WILLIAMSPORT   LGT RAIN  56  48  74 E5        30.07S
SELINSGROVE    CLOUDY    56  45  66 E6        30.08F
FT INDIANTOWN  CLOUDY    54  42  64 NE5       30.08S
CAPITAL CITY   CLOUDY    54  43  66 E7        30.06F
HARRISBURG     CLOUDY    54  44  69 CALM      30.06S
YORK           CLOUDY    53  44  71 E8        30.05S
$$

PAZ038>040-043-044-047-048-054-055-060>062-067>071-250300-
EASTERN PENNSYLVANIA

CITY           SKY/WX    TMP DP  RH WIND       PRES   REMARKS
SCRANTON       LGT RAIN  58  37  45 NE5       30.09S
MOUNT POCONO   LGT RAIN  51  35  54 E9        30.10S
ALLENTOWN      CLOUDY    55  44  66 E7        30.10S
QUAKERTOWN*    CLOUDY    54  37  54 E6        30.11S
READING        CLOUDY    55  43  63 VRB3      30.08S
LANCASTER      CLOUDY    54  40  59 E10       30.07S
COATESVILLE    CLOUDY    54  41  62 E12G18    30.08S
POTTSTOWN      CLOUDY    54  36  50 E6        30.11R
BLUE BELL      CLOUDY    54  34  47 E9        30.10S
DOYLESTOWN     CLOUDY    53  38  56 VRB3      30.09S
WILLOW GROVE   NOT AVBL
NORTH PHILA    CLOUDY    56  38  50 E13       30.11S
PHILADELPHIA   CLOUDY    55  39  54 E14G24    30.08S
$$




USA.gov is the U.S. government's official web portal to all federal, state and local government web resources and services.